| time (UTC) | temp F | wind direction | speed MPH | gust MPH | rain 1hr in | rain 24hr in | rain mn in | humidity % | barometer mb |
| 20260904090853 | 80 | 129 | 1.0 | 3.0 | 0.00 | 0.00 | 0.00 | 89 | 1010.3 |
| 20260904090616 | 80 | 129 | 0.0 | 2.0 | 0.00 | 0.00 | 0.00 | 88 | 1010.3 |
| 20260904085351 | 80 | 129 | 1.0 | 5.0 | 0.00 | 0.00 | 0.00 | 88 | 1010.2 |
| 20260904084850 | 80 | 129 | 1.0 | 5.0 | 0.00 | 0.00 | 0.00 | 88 | 1010.2 |
| 20260904084343 | 81 | 129 | 2.0 | 5.0 | 0.00 | 0.00 | 0.00 | 88 | 1009.9 |
| 20260904083838 | 81 | 128 | 3.0 | 5.0 | 0.00 | 0.00 | 0.00 | 88 | 1009.9 |
| 20260904083323 | 81 | 128 | 3.0 | 4.0 | 0.00 | 0.00 | 0.00 | 88 | 1009.9 |
| 20260904082817 | 81 | 132 | 2.0 | 4.0 | 0.00 | 0.00 | 0.00 | 88 | 1009.9 |
| 20260904082308 | 81 | 143 | 2.0 | 4.0 | 0.00 | 0.00 | 0.00 | 88 | 1009.9 |
| 20260904081801 | 81 | 142 | 1.0 | 4.0 | 0.00 | 0.00 | 0.00 | 88 | 1009.9 |
| 20260904081521 | 81 | 142 | 1.0 | 3.0 | 0.00 | 0.00 | 0.00 | 88 | 1010.2 |
| 20260904081012 | 81 | 142 | 1.0 | 3.0 | 0.00 | 0.00 | 0.00 | 88 | 1010.2 |
| 20260904080240 | 81 | 142 | 1.0 | 2.0 | 0.00 | 0.00 | 0.00 | 88 | 1010.2 |
| 20260904075739 | 81 | 142 | 1.0 | 4.0 | 0.00 | 0.00 | 0.00 | 88 | 1010.3 |
| 20260904075240 | 81 | 142 | 2.0 | 4.0 | 0.00 | 0.00 | 0.00 | 88 | 1010.3 |
| 20260904074737 | 81 | 143 | 1.0 | 4.0 | 0.00 | 0.00 | 0.00 | 88 | 1010.3 |
| 20260904074240 | 81 | 143 | 2.0 | 3.0 | 0.00 | 0.00 | 0.00 | 88 | 1010.3 |
| 20260904073739 | 81 | 143 | 2.0 | 3.0 | 0.00 | 0.00 | 0.00 | 88 | 1010.3 |
| 20260904073238 | 81 | 143 | 2.0 | 3.0 | 0.00 | 0.00 | 0.00 | 88 | 1010.3 |
| 20260904072739 | 81 | 143 | 2.0 | 3.0 | 0.00 | 0.00 | 0.00 | 88 | 1010.3 |
| 20260904072239 | 81 | 143 | 2.0 | 3.0 | 0.00 | 0.00 | 0.00 | 88 | 1010.3 |
| 20260904071731 | 81 | 143 | 2.0 | 5.0 | 0.00 | 0.00 | 0.00 | 87 | 1010.3 |
| 20260904071224 | 82 | 143 | 2.0 | 5.0 | 0.00 | 0.00 | 0.00 | 87 | 1010.3 |
| 20260904070940 | 82 | 143 | 2.0 | 5.0 | 0.00 | 0.00 | 0.00 | 87 | 1010.3 |
| 20260904070224 | 82 | 141 | 2.0 | 6.0 | 0.00 | 0.00 | 0.00 | 87 | 1010.3 |
| 20260904065725 | 82 | 141 | 3.0 | 6.0 | 0.00 | 0.00 | 0.00 | 87 | 1010.4 |
| 20260904065224 | 82 | 139 | 3.0 | 5.0 | 0.00 | 0.00 | 0.00 | 87 | 1010.4 |
| 20260904064725 | 82 | 105 | 3.0 | 5.0 | 0.00 | 0.00 | 0.00 | 87 | 1010.4 |
| 20260904064225 | 82 | 135 | 2.0 | 5.0 | 0.00 | 0.00 | 0.00 | 87 | 1010.3 |
| 20260904063721 | 82 | 126 | 3.0 | 6.0 | 0.00 | 0.00 | 0.00 | 87 | 1010.3 |
| 20260904063214 | 82 | 136 | 3.0 | 8.0 | 0.00 | 0.00 | 0.00 | 87 | 1010.3 |
| 20260904062709 | 82 | 108 | 3.0 | 8.0 | 0.00 | 0.00 | 0.00 | 87 | 1010.3 |
| 20260904062201 | 82 | 128 | 3.0 | 6.0 | 0.00 | 0.00 | 0.00 | 87 | 1010.3 |
| 20260904061159 | 82 | 131 | 3.0 | 7.0 | 0.00 | 0.00 | 0.00 | 87 | 1010.4 |
| 20260904060657 | 82 | 134 | 3.0 | 7.0 | 0.00 | 0.00 | 0.00 | 87 | 1010.4 |
| 20260904060159 | 82 | 137 | 3.0 | 6.0 | 0.00 | 0.00 | 0.00 | 87 | 1010.4 |
| 20260904055659 | 82 | 131 | 3.0 | 5.0 | 0.00 | 0.00 | 0.00 | 87 | 1010.6 |
| 20260904055158 | 82 | 139 | 3.0 | 5.0 | 0.00 | 0.00 | 0.00 | 88 | 1010.6 |
| 20260904054658 | 81 | 141 | 3.0 | 5.0 | 0.00 | 0.00 | 0.00 | 88 | 1010.6 |
| 20260904054157 | 81 | 149 | 3.0 | 5.0 | 0.00 | 0.00 | 0.00 | 88 | 1010.7 |
| 20260904053657 | 81 | 153 | 3.0 | 5.0 | 0.00 | 0.00 | 0.00 | 88 | 1010.7 |
| 20260904053156 | 81 | 147 | 3.0 | 5.0 | 0.00 | 0.00 | 0.00 | 88 | 1010.7 |
| 20260904052654 | 81 | 151 | 4.0 | 7.0 | 0.00 | 0.00 | 0.00 | 88 | 1010.5 |
| 20260904052144 | 81 | 153 | 5.0 | 8.0 | 0.00 | 0.00 | 0.00 | 88 | 1010.5 |
| 20260904051636 | 81 | 90 | 4.0 | 8.0 | 0.00 | 0.00 | 0.00 | 88 | 1010.5 |
| 20260904051136 | 81 | 90 | 4.0 | 7.0 | 0.00 | 0.00 | 0.00 | 88 | 1010.6 |
| 20260904050635 | 81 | 139 | 3.0 | 7.0 | 0.00 | 0.00 | 0.00 | 87 | 1010.6 |
| 20260904050136 | 81 | 132 | 4.0 | 7.0 | 0.00 | 0.00 | 0.00 | 87 | 1010.6 |
| 20260904045633 | 81 | 143 | 4.0 | 7.0 | 0.00 | 0.00 | 0.00 | 87 | 1010.6 |
| 20260904045133 | 81 | 140 | 4.0 | 7.0 | 0.00 | 0.00 | 0.00 | 87 | 1010.6 |
| 20260904044634 | 81 | 136 | 3.0 | 6.0 | 0.00 | 0.00 | 0.00 | 87 | 1010.6 |
| 20260904044135 | 82 | 138 | 3.0 | 6.0 | 0.00 | 0.00 | 0.00 | 86 | 1010.4 |
| 20260904043632 | 82 | 122 | 4.0 | 6.0 | 0.00 | 0.00 | 0.00 | 86 | 1010.4 |
| 20260904043120 | 82 | 118 | 4.0 | 5.0 | 0.00 | 0.00 | 0.00 | 86 | 1010.4 |
| 20260904042610 | 82 | 115 | 4.0 | 5.0 | 0.00 | 0.00 | 0.00 | 86 | 1010.8 |
| 20260904042110 | 82 | 116 | 4.0 | 9.0 | 0.00 | 0.00 | 0.00 | 86 | 1010.8 |
| 20260904041104 | 83 | 120 | 5.0 | 9.0 | 0.00 | 0.00 | 0.00 | 86 | 1010.8 |
| 20260904040605 | 83 | 115 | 4.0 | 9.0 | 0.00 | 0.00 | 0.00 | 86 | 1010.8 |
| 20260904040333 | 83 | 129 | 4.0 | 8.0 | 0.00 | 0.00 | 0.00 | 86 | 1010.8 |
| 20260904035604 | 83 | 123 | 4.0 | 8.0 | 0.00 | 0.00 | 0.00 | 86 | 1010.7 |
| 20260904035102 | 83 | 139 | 4.0 | 7.0 | 0.00 | 0.00 | 0.00 | 85 | 1010.7 |
| 20260904034603 | 83 | 128 | 5.0 | 8.0 | 0.00 | 0.00 | 0.00 | 85 | 1010.7 |
| 20260904034327 | 83 | 119 | 4.0 | 8.0 | 0.00 | 0.00 | 0.00 | 86 | 1010.5 |
| 20260904033833 | 83 | 139 | 4.0 | 9.0 | 0.00 | 0.00 | 0.00 | 85 | 1010.5 |
| 20260904033326 | 83 | 141 | 5.0 | 9.0 | 0.00 | 0.00 | 0.00 | 85 | 1010.5 |
| 20260904032604 | 83 | 139 | 5.0 | 9.0 | 0.00 | 0.00 | 0.00 | 85 | 1010.4 |
| 20260904032057 | 83 | 114 | 5.0 | 8.0 | 0.00 | 0.00 | 0.00 | 86 | 1010.4 |
| 20260904031551 | 83 | 128 | 5.0 | 8.0 | 0.00 | 0.00 | 0.00 | 85 | 1010.4 |
| 20260904031041 | 83 | 140 | 4.0 | 8.0 | 0.00 | 0.00 | 0.00 | 85 | 1010.3 |
| 20260904030817 | 83 | 136 | 4.0 | 8.0 | 0.00 | 0.00 | 0.00 | 85 | 1010.3 |
| 20260904030040 | 83 | 130 | 4.0 | 8.0 | 0.00 | 0.00 | 0.00 | 85 | 1010.3 |
| 20260904025538 | 83 | 125 | 4.0 | 8.0 | 0.00 | 0.00 | 0.00 | 84 | 1010.3 |
| 20260904025039 | 83 | 139 | 3.0 | 7.0 | 0.00 | 0.00 | 0.00 | 84 | 1010.3 |
| 20260904024759 | 83 | 145 | 3.0 | 7.0 | 0.00 | 0.00 | 0.00 | 83 | 1010.3 |
| 20260904024040 | 84 | 136 | 3.0 | 7.0 | 0.00 | 0.00 | 0.00 | 83 | 1010.2 |
| 20260904023539 | 84 | 123 | 4.0 | 7.0 | 0.00 | 0.00 | 0.00 | 83 | 1010.2 |
| 20260904023042 | 84 | 143 | 4.0 | 8.0 | 0.00 | 0.00 | 0.00 | 83 | 1010.2 |
| 20260904022538 | 84 | 120 | 5.0 | 8.0 | 0.00 | 0.00 | 0.00 | 82 | 1009.9 |
| 20260904022039 | 84 | 132 | 5.0 | 11.0 | 0.00 | 0.00 | 0.00 | 82 | 1009.9 |
| 20260904021539 | 84 | 149 | 6.0 | 11.0 | 0.00 | 0.00 | 0.00 | 82 | 1009.9 |
| 20260904021036 | 84 | 128 | 6.0 | 11.0 | 0.00 | 0.00 | 0.00 | 82 | 1009.8 |
| 20260904020530 | 84 | 143 | 6.0 | 12.0 | 0.00 | 0.00 | 0.00 | 82 | 1009.8 |
| 20260904020023 | 85 | 143 | 7.0 | 12.0 | 0.00 | 0.00 | 0.00 | 82 | 1009.8 |
| 20260904015004 | 85 | 132 | 6.0 | 13.0 | 0.00 | 0.00 | 0.00 | 81 | 1009.8 |
| 20260904014720 | 85 | 105 | 6.0 | 13.0 | 0.00 | 0.00 | 0.00 | 81 | 1009.8 |
| 20260904014211 | 85 | 120 | 7.0 | 13.0 | 0.00 | 0.00 | 0.00 | 81 | 1009.8 |
| 20260904013701 | 85 | 114 | 7.0 | 11.0 | 0.00 | 0.00 | 0.00 | 81 | 1009.8 |
| 20260904012938 | 85 | 116 | 6.0 | 10.0 | 0.00 | 0.00 | 0.00 | 80 | 1009.8 |
| 20260904012436 | 85 | 139 | 6.0 | 14.0 | 0.00 | 0.00 | 0.00 | 80 | 1009.8 |
| 20260904011932 | 85 | 133 | 7.0 | 14.0 | 0.00 | 0.00 | 0.00 | 80 | 1009.8 |
| 20260904011432 | 85 | 158 | 7.0 | 15.0 | 0.00 | 0.00 | 0.00 | 80 | 1009.7 |
| 20260904010934 | 86 | 130 | 8.0 | 15.0 | 0.00 | 0.00 | 0.00 | 79 | 1009.7 |
| 20260904010433 | 86 | 130 | 8.0 | 13.0 | 0.00 | 0.00 | 0.00 | 79 | 1009.7 |
| 20260904005933 | 86 | 111 | 7.0 | 15.0 | 0.00 | 0.00 | 0.00 | 79 | 1009.8 |
| 20260904005434 | 86 | 133 | 8.0 | 17.0 | 0.00 | 0.00 | 0.00 | 78 | 1009.8 |
| 20260904004929 | 86 | 124 | 9.0 | 17.0 | 0.00 | 0.00 | 0.00 | 78 | 1009.8 |
| 20260904004432 | 87 | 132 | 8.0 | 15.0 | 0.00 | 0.00 | 0.00 | 77 | 1009.8 |
| 20260904003920 | 87 | 134 | 8.0 | 16.0 | 0.00 | 0.00 | 0.00 | 77 | 1009.8 |
| 20260904003412 | 87 | 155 | 8.0 | 16.0 | 0.00 | 0.00 | 0.00 | 76 | 1009.8 |
| 20260904002912 | 87 | 128 | 9.0 | 16.0 | 0.00 | 0.00 | 0.00 | 76 | 1009.8 |
| 20260904002414 | 87 | 145 | 10.0 | 16.0 | 0.00 | 0.00 | 0.00 | 75 | 1009.8 |
| 20260904001912 | 88 | 126 | 10.0 | 16.0 | 0.00 | 0.00 | 0.00 | 75 | 1009.8 |
| 20260904001411 | 88 | 137 | 10.0 | 16.0 | 0.00 | 0.00 | 0.00 | 74 | 1009.8 |
| 20260904000913 | 88 | 139 | 11.0 | 16.0 | 0.00 | 0.00 | 0.00 | 73 | 1009.8 |
| 20260904000421 | 89 | 118 | 11.0 | 17.0 | 0.00 | 0.00 | 0.00 | 73 | 1009.8 |
| 20260903235913 | 89 | 125 | 9.0 | 17.0 | 0.00 | 0.00 | 0.00 | 73 | 1009.8 |
| 20260903235359 | 89 | 105 | 10.0 | 16.0 | 0.00 | 0.00 | 0.00 | 72 | 1009.8 |
| 20260903235111 | 89 | 145 | 9.0 | 16.0 | 0.00 | 0.00 | 0.00 | 72 | 1009.8 |
| 20260903234343 | 89 | 132 | 9.0 | 17.0 | 0.00 | 0.00 | 0.00 | 71 | 1009.8 |
| 20260903234107 | 89 | 116 | 10.0 | 17.0 | 0.00 | 0.00 | 0.00 | 70 | 1009.8 |
| 20260903233330 | 90 | 90 | 10.0 | 17.0 | 0.00 | 0.00 | 0.00 | 70 | 1009.8 |
| 20260903232817 | 90 | 114 | 8.0 | 17.0 | 0.00 | 0.00 | 0.00 | 69 | 1009.8 |
| 20260903232306 | 90 | 90 | 9.0 | 17.0 | 0.00 | 0.00 | 0.00 | 68 | 1009.8 |
| 20260903231801 | 90 | 145 | 9.0 | 17.0 | 0.00 | 0.00 | 0.00 | 67 | 1009.8 |
| 20260903231252 | 91 | 166 | 9.0 | 17.0 | 0.00 | 0.00 | 0.00 | 67 | 1009.6 |
| 20260903230747 | 91 | 102 | 9.0 | 17.0 | 0.00 | 0.00 | 0.00 | 67 | 1009.6 |
| 20260903230234 | 91 | 146 | 9.0 | 17.0 | 0.00 | 0.00 | 0.00 | 68 | 1009.6 |
| 20260903225728 | 91 | 90 | 9.0 | 16.0 | 0.00 | 0.00 | 0.00 | 67 | 1009.4 |
| 20260903225221 | 91 | 90 | 9.0 | 16.0 | 0.00 | 0.00 | 0.00 | 66 | 1009.4 |
| 20260903224722 | 92 | 147 | 9.0 | 16.0 | 0.00 | 0.00 | 0.00 | 64 | 1009.4 |
| 20260903224220 | 92 | 114 | 9.0 | 16.0 | 0.00 | 0.00 | 0.00 | 63 | 1009.4 |
| 20260903223719 | 92 | 150 | 9.0 | 18.0 | 0.00 | 0.00 | 0.00 | 62 | 1009.4 |
| 20260903223442 | 92 | 126 | 9.0 | 18.0 | 0.00 | 0.00 | 0.00 | 62 | 1009.4 |
| 20260903222717 | 92 | 118 | 9.0 | 16.0 | 0.00 | 0.00 | 0.00 | 59 | 1009.7 |
| 20260903222221 | 93 | 90 | 9.0 | 18.0 | 0.00 | 0.00 | 0.00 | 58 | 1009.7 |
| 20260903221950 | 93 | 124 | 10.0 | 18.0 | 0.00 | 0.00 | 0.00 | 57 | 1009.7 |
| 20260903221219 | 93 | 107 | 10.0 | 18.0 | 0.00 | 0.00 | 0.00 | 59 | 1009.5 |
| 20260903220718 | 93 | 134 | 11.0 | 20.0 | 0.00 | 0.00 | 0.00 | 60 | 1009.5 |
| 20260903220447 | 94 | 174 | 11.0 | 20.0 | 0.00 | 0.00 | 0.00 | 61 | 1009.5 |
| 20260903215719 | 94 | 194 | 11.0 | 19.0 | 0.00 | 0.00 | 0.00 | 61 | 1009.7 |
| 20260903215218 | 94 | 168 | 10.0 | 19.0 | 0.00 | 0.00 | 0.00 | 60 | 1009.7 |
| 20260903214718 | 95 | 143 | 9.0 | 17.0 | 0.00 | 0.00 | 0.00 | 59 | 1009.7 |
| 20260903214219 | 95 | 206 | 9.0 | 14.0 | 0.00 | 0.00 | 0.00 | 54 | 1009.9 |
| 20260903213944 | 95 | 162 | 8.0 | 13.0 | 0.00 | 0.00 | 0.00 | 53 | 1009.9 |
| 20260903213216 | 95 | 90 | 8.0 | 13.0 | 0.00 | 0.00 | 0.00 | 52 | 1009.9 |
| 20260903212720 | 95 | 141 | 7.0 | 11.0 | 0.00 | 0.00 | 0.00 | 52 | 1009.8 |
| 20260903212215 | 95 | 133 | 7.0 | 13.0 | 0.00 | 0.00 | 0.00 | 54 | 1009.8 |
| 20260903211946 | 94 | 136 | 7.0 | 13.0 | 0.00 | 0.00 | 0.00 | 55 | 1009.8 |
| 20260903211216 | 94 | 170 | 7.0 | 13.0 | 0.00 | 0.00 | 0.00 | 55 | 1009.8 |
| 20260903210937 | 94 | 90 | 8.0 | 13.0 | 0.00 | 0.00 | 0.00 | 57 | 1009.8 |
| 20260903210216 | 94 | 118 | 8.0 | 15.0 | 0.00 | 0.00 | 0.00 | 57 | 1009.8 |
| 20260903205942 | 94 | 112 | 8.0 | 15.0 | 0.00 | 0.00 | 0.00 | 57 | 1010.0 |
| 20260903205209 | 94 | 125 | 9.0 | 16.0 | 0.00 | 0.00 | 0.00 | 58 | 1010.0 |
| 20260903204709 | 94 | 117 | 9.0 | 16.0 | 0.00 | 0.00 | 0.00 | 58 | 1010.0 |
| 20260903204210 | 95 | 155 | 10.0 | 17.0 | 0.00 | 0.00 | 0.00 | 59 | 1010.2 |
| 20260903203931 | 95 | 132 | 10.0 | 17.0 | 0.00 | 0.00 | 0.00 | 59 | 1010.2 |
| 20260903203210 | 96 | 143 | 9.0 | 22.0 | 0.00 | 0.00 | 0.00 | 60 | 1010.2 |
| 20260903202709 | 95 | 122 | 9.0 | 22.0 | 0.00 | 0.00 | 0.00 | 59 | 1010.3 |
| 20260903202208 | 96 | 115 | 11.0 | 22.0 | 0.00 | 0.00 | 0.00 | 60 | 1010.3 |
| 20260903201708 | 95 | 163 | 11.0 | 22.0 | 0.00 | 0.00 | 0.00 | 58 | 1010.3 |
| 20260903201155 | 96 | 166 | 9.0 | 20.0 | 0.00 | 0.00 | 0.00 | 59 | 1010.2 |
| 20260903200654 | 96 | 167 | 10.0 | 18.0 | 0.00 | 0.00 | 0.00 | 59 | 1010.2 |
| 20260903200155 | 96 | 90 | 9.0 | 22.0 | 0.00 | 0.00 | 0.00 | 58 | 1010.2 |
| 20260903195921 | 96 | 169 | 9.0 | 22.0 | 0.00 | 0.00 | 0.00 | 60 | 1010.1 |
| 20260903195414 | 97 | 161 | 10.0 | 21.0 | 0.00 | 0.00 | 0.00 | 58 | 1010.1 |
| 20260903194656 | 98 | 157 | 12.0 | 22.0 | 0.00 | 0.00 | 0.00 | 59 | 1010.1 |
| 20260903194437 | 98 | 157 | 13.0 | 22.0 | 0.00 | 0.00 | 0.00 | 58 | 1010.3 |
| 20260903193657 | 96 | 170 | 11.0 | 22.0 | 0.00 | 0.00 | 0.00 | 60 | 1010.3 |
| 20260903193155 | 97 | 201 | 9.0 | 17.0 | 0.00 | 0.00 | 0.00 | 59 | 1010.3 |
| 20260903192659 | 97 | 149 | 9.0 | 18.0 | 0.00 | 0.00 | 0.00 | 58 | 1010.3 |
| 20260903192144 | 97 | 90 | 8.0 | 18.0 | 0.00 | 0.00 | 0.00 | 56 | 1010.3 |
| 20260903191638 | 98 | 116 | 8.0 | 18.0 | 0.00 | 0.00 | 0.00 | 57 | 1010.3 |
| 20260903191138 | 98 | 184 | 7.0 | 18.0 | 0.00 | 0.00 | 0.00 | 54 | 1010.4 |
| 20260903190618 | 97 | 188 | 6.0 | 10.0 | 0.00 | 0.00 | 0.00 | 55 | 1010.4 |
| 20260903190113 | 97 | 180 | 7.0 | 13.0 | 0.00 | 0.00 | 0.00 | 57 | 1010.4 |
| 20260903185602 | 97 | 90 | 7.0 | 11.0 | 0.00 | 0.00 | 0.00 | 57 | 1010.8 |
| 20260903185048 | 96 | 202 | 8.0 | 15.0 | 0.00 | 0.00 | 0.00 | 59 | 1010.8 |
| 20260903184759 | 95 | 207 | 9.0 | 16.0 | 0.00 | 0.00 | 0.00 | 58 | 1010.8 |
| 20260903184036 | 95 | 214 | 9.0 | 16.0 | 0.00 | 0.00 | 0.00 | 59 | 1010.8 |
| 20260903183529 | 95 | 218 | 9.0 | 16.0 | 0.00 | 0.00 | 0.00 | 63 | 1010.8 |
| 20260903183016 | 95 | 214 | 9.0 | 15.0 | 0.00 | 0.00 | 0.00 | 60 | 1011.0 |
| 20260903182505 | 96 | 230 | 8.0 | 13.0 | 0.00 | 0.00 | 0.00 | 59 | 1011.0 |
| 20260903182004 | 96 | 208 | 9.0 | 16.0 | 0.00 | 0.00 | 0.00 | 57 | 1011.0 |
| 20260903181502 | 96 | 205 | 9.0 | 16.0 | 0.00 | 0.00 | 0.00 | 57 | 1011.3 |
| 20260903181207 | 96 | 205 | 9.0 | 16.0 | 0.00 | 0.00 | 0.00 | 58 | 1011.3 |
| 20260903180434 | 96 | 214 | 8.0 | 16.0 | 0.00 | 0.00 | 0.00 | 59 | 1011.3 |
| 20260903175928 | 96 | 210 | 8.0 | 15.0 | 0.00 | 0.00 | 0.00 | 57 | 1011.4 |
| 20260903175420 | 96 | 232 | 9.0 | 15.0 | 0.00 | 0.00 | 0.00 | 57 | 1011.4 |
| 20260903175136 | 95 | 224 | 8.0 | 16.0 | 0.00 | 0.00 | 0.00 | 59 | 1011.4 |
| 20260903174422 | 95 | 197 | 7.0 | 16.0 | 0.00 | 0.00 | 0.00 | 60 | 1011.8 |
| 20260903173919 | 94 | 221 | 8.0 | 16.0 | 0.00 | 0.00 | 0.00 | 61 | 1011.8 |
| 20260903173422 | 95 | 197 | 8.0 | 16.0 | 0.00 | 0.00 | 0.00 | 62 | 1011.8 |
| 20260903173147 | 95 | 210 | 8.0 | 14.0 | 0.00 | 0.00 | 0.00 | 62 | 1011.9 |
| 20260903172430 | 94 | 159 | 8.0 | 15.0 | 0.00 | 0.00 | 0.00 | 61 | 1011.9 |
| 20260903172144 | 94 | 197 | 8.0 | 16.0 | 0.00 | 0.00 | 0.00 | 62 | 1011.9 |
| 20260903171417 | 94 | 164 | 8.0 | 16.0 | 0.00 | 0.00 | 0.00 | 64 | 1011.9 |
| 20260903170914 | 94 | 207 | 7.0 | 11.0 | 0.00 | 0.00 | 0.00 | 62 | 1011.9 |
| 20260903170429 | 94 | 238 | 8.0 | 0.0 | 0.00 | 0.00 | 0.00 | 65 | 1011.9 |
| 20260903165906 | 94 | 90 | 8.0 | 13.0 | 0.00 | 0.00 | 0.00 | 63 | 1011.9 |
| 20260903165406 | 94 | 187 | 8.0 | 15.0 | 0.00 | 0.00 | 0.00 | 63 | 1011.9 |
| 20260903164903 | 93 | 214 | 8.0 | 18.0 | 0.00 | 0.00 | 0.00 | 67 | 1011.9 |
| 20260903164134 | 93 | 209 | 9.0 | 18.0 | 0.00 | 0.00 | 0.00 | 64 | 1011.9 |
| 20260903163404 | 93 | 226 | 9.0 | 18.0 | 0.00 | 0.00 | 0.00 | 66 | 1011.9 |
| 20260903162344 | 93 | 213 | 9.0 | 16.0 | 0.00 | 0.00 | 0.00 | 68 | 1011.9 |
| 20260903161830 | 92 | 190 | 8.0 | 15.0 | 0.00 | 0.00 | 0.00 | 68 | 1011.9 |
| 20260903161604 | 92 | 178 | 9.0 | 14.0 | 0.00 | 0.00 | 0.00 | 70 | 1011.9 |
| 20260903160831 | 92 | 206 | 9.0 | 17.0 | 0.00 | 0.00 | 0.00 | 72 | 1011.9 |
| 20260903160330 | 91 | 210 | 9.0 | 17.0 | 0.00 | 0.00 | 0.00 | 72 | 1011.9 |
| 20260903155831 | 91 | 215 | 9.0 | 17.0 | 0.00 | 0.00 | 0.00 | 73 | 1012.0 |
| 20260903155329 | 90 | 216 | 9.0 | 17.0 | 0.00 | 0.00 | 0.00 | 75 | 1012.0 |
| 20260903154830 | 90 | 217 | 9.0 | 15.0 | 0.00 | 0.00 | 0.00 | 75 | 1012.0 |
| 20260903154558 | 90 | 218 | 9.0 | 15.0 | 0.00 | 0.00 | 0.00 | 76 | 1012.1 |
| 20260903154036 | 90 | 211 | 10.0 | 16.0 | 0.00 | 0.00 | 0.00 | 74 | 1012.1 |
| 20260903153305 | 90 | 218 | 9.0 | 16.0 | 0.00 | 0.00 | 0.00 | 77 | 1012.1 |
| 20260903152306 | 89 | 229 | 8.0 | 15.0 | 0.00 | 0.00 | 0.00 | 79 | 1012.3 |
| 20260903151801 | 89 | 214 | 9.0 | 15.0 | 0.00 | 0.00 | 0.00 | 80 | 1012.3 |
| 20260903151301 | 89 | 224 | 10.0 | 16.0 | 0.00 | 0.00 | 0.00 | 80 | 1012.3 |
| 20260903150803 | 89 | 225 | 11.0 | 16.0 | 0.00 | 0.00 | 0.00 | 81 | 1012.3 |
| 20260903150302 | 88 | 217 | 10.0 | 16.0 | 0.00 | 0.00 | 0.00 | 79 | 1012.3 |
| 20260903145802 | 88 | 219 | 9.0 | 15.0 | 0.00 | 0.00 | 0.00 | 82 | 1012.3 |
| 20260903145306 | 87 | 217 | 10.0 | 15.0 | 0.00 | 0.00 | 0.00 | 81 | 1012.3 |
| 20260903144803 | 87 | 224 | 11.0 | 15.0 | 0.00 | 0.00 | 0.00 | 81 | 1012.3 |
| 20260903144303 | 87 | 215 | 10.0 | 15.0 | 0.00 | 0.00 | 0.00 | 83 | 1012.4 |
| 20260903144017 | 87 | 215 | 9.0 | 14.0 | 0.00 | 0.00 | 0.00 | 85 | 1012.4 |
| 20260903143252 | 86 | 222 | 9.0 | 14.0 | 0.00 | 0.00 | 0.00 | 85 | 1012.4 |
| 20260903142752 | 86 | 220 | 9.0 | 15.0 | 0.00 | 0.00 | 0.00 | 86 | 1012.4 |
| 20260903142523 | 86 | 220 | 7.0 | 15.0 | 0.00 | 0.00 | 0.00 | 85 | 1012.4 |
| 20260903142013 | 86 | 224 | 8.0 | 13.0 | 0.00 | 0.00 | 0.00 | 86 | 1012.4 |
| 20260903141519 | 85 | 210 | 7.0 | 14.0 | 0.00 | 0.00 | 0.00 | 86 | 1012.4 |
| 20260903141013 | 85 | 211 | 6.0 | 14.0 | 0.00 | 0.00 | 0.00 | 87 | 1012.4 |
| 20260903140251 | 84 | 201 | 5.0 | 14.0 | 0.00 | 0.00 | 0.00 | 87 | 1012.4 |
| 20260903135752 | 84 | 199 | 4.0 | 9.0 | 0.00 | 0.00 | 0.00 | 88 | 1012.4 |
| 20260903135255 | 83 | 201 | 3.0 | 7.0 | 0.00 | 0.00 | 0.00 | 88 | 1012.4 |
| 20260903134250 | 83 | 159 | 1.0 | 5.0 | 0.00 | 0.00 | 0.00 | 88 | 1012.4 |
| 20260903133231 | 83 | 155 | 0.0 | 0.0 | 0.00 | 0.00 | 0.00 | 89 | 1012.4 |
| 20260903132720 | 83 | 155 | 0.0 | 4.0 | 0.00 | 0.00 | 0.00 | 89 | 1012.3 |
| 20260903132436 | 82 | 155 | 0.0 | 4.0 | 0.00 | 0.00 | 0.00 | 89 | 1012.3 |
| 20260903131704 | 82 | 155 | 1.0 | 4.0 | 0.00 | 0.00 | 0.00 | 89 | 1012.3 |
| 20260903131200 | 82 | 155 | 2.0 | 4.0 | 0.00 | 0.00 | 0.00 | 89 | 1011.9 |
| 20260903130700 | 82 | 155 | 2.0 | 3.0 | 0.00 | 0.00 | 0.00 | 89 | 1011.9 |
| 20260903130159 | 81 | 156 | 2.0 | 3.0 | 0.00 | 0.00 | 0.00 | 90 | 1011.9 |
| 20260903125920 | 81 | 156 | 1.0 | 3.0 | 0.00 | 0.00 | 0.00 | 89 | 1011.9 |
| 20260903125159 | 81 | 156 | 2.0 | 5.0 | 0.00 | 0.00 | 0.00 | 89 | 1011.9 |
| 20260903124657 | 82 | 157 | 3.0 | 5.0 | 0.00 | 0.00 | 0.00 | 89 | 1011.9 |
| 20260903124157 | 82 | 167 | 2.0 | 5.0 | 0.00 | 0.00 | 0.00 | 89 | 1011.9 |
| 20260903123657 | 83 | 184 | 2.0 | 9.0 | 0.00 | 0.00 | 0.00 | 89 | 1011.9 |
| 20260903123156 | 83 | 191 | 3.0 | 9.0 | 0.00 | 0.00 | 0.00 | 89 | 1011.9 |
| 20260903122656 | 83 | 184 | 5.0 | 9.0 | 0.00 | 0.00 | 0.00 | 89 | 1011.5 |
| 20260903122152 | 83 | 209 | 4.0 | 9.0 | 0.00 | 0.00 | 0.00 | 89 | 1011.5 |
| 20260903121650 | 82 | 213 | 3.0 | 8.0 | 0.00 | 0.00 | 0.00 | 90 | 1011.5 |
| 20260903121148 | 82 | 207 | 2.0 | 7.0 | 0.00 | 0.00 | 0.00 | 90 | 1011.5 |
| 20260903120649 | 82 | 203 | 2.0 | 5.0 | 0.00 | 0.00 | 0.00 | 90 | 1011.5 |
| 20260903120137 | 82 | 200 | 2.0 | 5.0 | 0.00 | 0.00 | 0.00 | 89 | 1011.5 |
| 20260903115624 | 82 | 183 | 1.0 | 5.0 | 0.00 | 0.00 | 0.00 | 89 | 1011.4 |
| 20260903115122 | 82 | 182 | 2.0 | 5.0 | 0.00 | 0.00 | 0.00 | 89 | 1011.4 |
| 20260903114839 | 82 | 186 | 2.0 | 5.0 | 0.00 | 0.00 | 0.00 | 89 | 1011.4 |
| 20260903114341 | 82 | 180 | 2.0 | 6.0 | 0.00 | 0.00 | 0.00 | 89 | 1011.4 |
| 20260903113845 | 82 | 176 | 2.0 | 6.0 | 0.00 | 0.00 | 0.00 | 89 | 1011.4 |
| 20260903113121 | 82 | 182 | 2.0 | 6.0 | 0.00 | 0.00 | 0.00 | 89 | 1011.4 |
| 20260903112620 | 82 | 179 | 2.0 | 6.0 | 0.00 | 0.00 | 0.00 | 89 | 1011.4 |
| 20260903112120 | 82 | 186 | 3.0 | 6.0 | 0.00 | 0.00 | 0.00 | 89 | 1011.4 |
| 20260903111608 | 82 | 90 | 3.0 | 6.0 | 0.00 | 0.00 | 0.00 | 89 | 1011.4 |
| 20260903111100 | 82 | 167 | 3.0 | 6.0 | 0.00 | 0.00 | 0.00 | 89 | 1011.4 |
| 20260903110556 | 82 | 176 | 2.0 | 5.0 | 0.00 | 0.00 | 0.00 | 89 | 1011.4 |
| 20260903110053 | 82 | 90 | 2.0 | 5.0 | 0.00 | 0.00 | 0.00 | 89 | 1011.4 |
| 20260903105551 | 82 | 169 | 2.0 | 5.0 | 0.00 | 0.00 | 0.00 | 89 | 1011.4 |
| 20260903105051 | 82 | 90 | 2.0 | 8.0 | 0.00 | 0.00 | 0.00 | 89 | 1011.4 |
| 20260903104551 | 82 | 176 | 2.0 | 8.0 | 0.00 | 0.00 | 0.00 | 89 | 1011.4 |
| 20260903104315 | 82 | 90 | 4.0 | 8.0 | 0.00 | 0.00 | 0.00 | 89 | 1011.3 |
| 20260903103550 | 82 | 170 | 4.0 | 9.0 | 0.00 | 0.00 | 0.00 | 88 | 1011.3 |
| 20260903103051 | 82 | 90 | 4.0 | 9.0 | 0.00 | 0.00 | 0.00 | 88 | 1011.3 |
| 20260903102551 | 82 | 170 | 4.0 | 8.0 | 0.00 | 0.00 | 0.00 | 88 | 1011.3 |
| 20260903102052 | 82 | 170 | 3.0 | 8.0 | 0.00 | 0.00 | 0.00 | 88 | 1011.3 |
| 20260903101552 | 82 | 174 | 3.0 | 8.0 | 0.00 | 0.00 | 0.00 | 88 | 1011.3 |
| 20260903101046 | 82 | 161 | 3.0 | 8.0 | 0.00 | 0.00 | 0.00 | 88 | 1011.3 |
| 20260903100536 | 82 | 172 | 4.0 | 8.0 | 0.00 | 0.00 | 0.00 | 89 | 1011.3 |
| 20260903100304 | 82 | 176 | 4.0 | 11.0 | 0.00 | 0.00 | 0.00 | 89 | 1011.3 |
| 20260903095535 | 82 | 166 | 4.0 | 11.0 | 0.00 | 0.00 | 0.00 | 89 | 1011.2 |
| 20260903095034 | 81 | 173 | 5.0 | 9.0 | 0.00 | 0.00 | 0.00 | 89 | 1011.2 |
| 20260903094536 | 81 | 171 | 5.0 | 9.0 | 0.00 | 0.00 | 0.00 | 89 | 1011.2 |
| 20260903094035 | 81 | 166 | 4.0 | 9.0 | 0.00 | 0.00 | 0.00 | 89 | 1011.3 |
| 20260903093755 | 81 | 161 | 4.0 | 8.0 | 0.00 | 0.00 | 0.00 | 89 | 1011.3 |
| 20260903093300 | 81 | 90 | 4.0 | 8.0 | 0.00 | 0.00 | 0.00 | 89 | 1011.3 |
| 20260903092536 | 81 | 90 | 4.0 | 7.0 | 0.00 | 0.00 | 0.00 | 88 | 1011.4 |
| 20260903092034 | 82 | 170 | 3.0 | 8.0 | 0.00 | 0.00 | 0.00 | 88 | 1011.4 |
| 20260903091256 | 82 | 148 | 4.0 | 8.0 | 0.00 | 0.00 | 0.00 | 88 | 1011.4 |